Wetterdaten: Mittwoch, 27.10.2010
Datum Zeit Temp. A. Feuchte A. Luftdruck Regen Wind Richtung Richtung Sonnenschein UV Solar Windben
27.10.2010 00:00 4,8 C 85 % 1025,8 hPa 0,0 mm 0,0 km/h (0 Bft) N 0 0 min 0 UV-I 0 W/m 0,0 km/h (0 Bft)
27.10.2010 00:10 4,8 C 85 % 1025,6 hPa 0,0 mm 0,0 km/h (0 Bft) N 0 0 min 0 UV-I 0 W/m 0,0 km/h (0 Bft)
27.10.2010 00:20 4,8 C 85 % 1025,6 hPa 0,0 mm 0,0 km/h (0 Bft) N 0 0 min 0 UV-I 0 W/m 0,0 km/h (0 Bft)
27.10.2010 00:30 4,8 C 85 % 1025,5 hPa 0,0 mm 0,0 km/h (0 Bft) N 0 0 min 0 UV-I 0 W/m 0,0 km/h (0 Bft)
27.10.2010 00:40 4,8 C 86 % 1025,6 hPa 0,0 mm 0,0 km/h (0 Bft) N 0 0 min 0 UV-I 0 W/m 0,0 km/h (0 Bft)
27.10.2010 00:50 4,8 C 86 % 1025,5 hPa 0,0 mm 0,0 km/h (0 Bft) N 0 0 min 0 UV-I 0 W/m 0,0 km/h (0 Bft)
27.10.2010 01:00 4,8 C 86 % 1025,5 hPa 0,0 mm 0,0 km/h (0 Bft) N 0 0 min 0 UV-I 0 W/m 0,0 km/h (0 Bft)
27.10.2010 01:10 4,8 C 86 % 1025,4 hPa 0,0 mm 0,0 km/h (0 Bft) N 0 0 min 0 UV-I 0 W/m 0,0 km/h (0 Bft)
27.10.2010 01:20 4,8 C 86 % 1025,3 hPa 0,0 mm 0,0 km/h (0 Bft) N 0 0 min 0 UV-I 0 W/m 0,0 km/h (0 Bft)
27.10.2010 01:30 4,8 C 86 % 1025,2 hPa 0,0 mm 0,0 km/h (0 Bft) N 0 0 min 0 UV-I 0 W/m 0,0 km/h (0 Bft)
27.10.2010 01:40 4,8 C 86 % 1025,1 hPa 0,0 mm 0,0 km/h (0 Bft) N 0 0 min 0 UV-I 0 W/m 0,0 km/h (0 Bft)
27.10.2010 01:50 4,8 C 86 % 1025,1 hPa 0,0 mm 0,0 km/h (0 Bft) N 0 0 min 0 UV-I 0 W/m 0,0 km/h (0 Bft)
27.10.2010 02:00 4,9 C 86 % 1024,9 hPa 0,0 mm 0,0 km/h (0 Bft) W-SW 247 0 min 0 UV-I 0 W/m 1,6 km/h (1 Bft)
27.10.2010 02:10 4,9 C 85 % 1024,7 hPa 0,0 mm 0,0 km/h (0 Bft) W-SW 247 0 min 0 UV-I 0 W/m 1,6 km/h (1 Bft)
27.10.2010 02:20 4,9 C 85 % 1024,7 hPa 0,0 mm 0,0 km/h (0 Bft) N 0 0 min 0 UV-I 0 W/m 0,0 km/h (0 Bft)
27.10.2010 02:30 5,0 C 85 % 1024,6 hPa 0,0 mm 0,0 km/h (0 Bft) N 0 0 min 0 UV-I 0 W/m 0,0 km/h (0 Bft)
27.10.2010 02:40 5,1 C 85 % 1024,6 hPa 0,0 mm 0,0 km/h (0 Bft) W-SW 247 0 min 0 UV-I 0 W/m 1,6 km/h (1 Bft)
27.10.2010 02:50 5,2 C 85 % 1024,6 hPa 0,0 mm 0,0 km/h (0 Bft) N 0 0 min 0 UV-I 0 W/m 0,0 km/h (0 Bft)
27.10.2010 03:00 5,2 C 84 % 1024,6 hPa 0,0 mm 0,0 km/h (0 Bft) N 0 0 min 0 UV-I 0 W/m 0,0 km/h (0 Bft)
27.10.2010 03:10 5,3 C 83 % 1024,6 hPa 0,0 mm 1,6 km/h (1 Bft) W-SW 247 0 min 0 UV-I 0 W/m 8,0 km/h (2 Bft)
27.10.2010 03:20 5,4 C 80 % 1024,4 hPa 0,0 mm 1,6 km/h (1 Bft) SW 225 0 min 0 UV-I 0 W/m 9,7 km/h (2 Bft)
27.10.2010 03:30 5,7 C 76 % 1024,3 hPa 0,0 mm 1,6 km/h (1 Bft) S-SW 202 0 min 0 UV-I 0 W/m 9,7 km/h (2 Bft)
27.10.2010 03:40 6,2 C 71 % 1024,2 hPa 0,0 mm 1,6 km/h (1 Bft) S-SW 202 0 min 0 UV-I 0 W/m 8,0 km/h (2 Bft)
27.10.2010 03:50 6,6 C 68 % 1024,2 hPa 0,0 mm 1,6 km/h (1 Bft) S 180 0 min 0 UV-I 0 W/m 8,0 km/h (2 Bft)
27.10.2010 04:00 6,9 C 64 % 1024,1 hPa 0,0 mm 1,6 km/h (1 Bft) SO 135 0 min 0 UV-I 0 W/m 6,4 km/h (2 Bft)
27.10.2010 04:10 7,2 C 63 % 1024,0 hPa 0,0 mm 1,6 km/h (1 Bft) S-SO 157 0 min 0 UV-I 0 W/m 8,0 km/h (2 Bft)
27.10.2010 04:20 7,4 C 61 % 1023,7 hPa 0,0 mm 1,6 km/h (1 Bft) S 180 0 min 0 UV-I 0 W/m 8,0 km/h (2 Bft)
27.10.2010 04:30 7,6 C 60 % 1023,6 hPa 0,0 mm 1,6 km/h (1 Bft) S 180 0 min 0 UV-I 0 W/m 8,0 km/h (2 Bft)
27.10.2010 04:40 7,7 C 59 % 1023,5 hPa 0,0 mm 1,6 km/h (1 Bft) S 180 0 min 0 UV-I 0 W/m 6,4 km/h (2 Bft)
27.10.2010 04:50 7,8 C 60 % 1023,3 hPa 0,0 mm 0,0 km/h (0 Bft) S-SO 157 0 min 0 UV-I 0 W/m 4,8 km/h (1 Bft)
27.10.2010 05:00 7,8 C 61 % 1023,2 hPa 0,0 mm 1,6 km/h (1 Bft) S-SO 157 0 min 0 UV-I 0 W/m 8,0 km/h (2 Bft)
27.10.2010 05:10 7,8 C 61 % 1023,3 hPa 0,0 mm 1,6 km/h (1 Bft) S 180 0 min 0 UV-I 0 W/m 9,7 km/h (2 Bft)
27.10.2010 05:20 7,8 C 61 % 1023,2 hPa 0,0 mm 0,0 km/h (0 Bft) S-SO 157 0 min 0 UV-I 0 W/m 4,8 km/h (1 Bft)
27.10.2010 05:30 7,7 C 62 % 1023,2 hPa 0,0 mm 0,0 km/h (0 Bft) S-SO 157 0 min 0 UV-I 0 W/m 4,8 km/h (1 Bft)
27.10.2010 05:40 7,6 C 62 % 1023,2 hPa 0,0 mm 0,0 km/h (0 Bft) S-SO 157 0 min 0 UV-I 0 W/m 4,8 km/h (1 Bft)
27.10.2010 05:50 7,6 C 62 % 1023,1 hPa 0,0 mm 0,0 km/h (0 Bft) S-SO 157 0 min 0 UV-I 0 W/m 4,8 km/h (1 Bft)
27.10.2010 06:00 7,6 C 63 % 1023,1 hPa 0,0 mm 0,0 km/h (0 Bft) S-SO 157 0 min 0 UV-I 0 W/m 3,2 km/h (1 Bft)
27.10.2010 06:10 7,5 C 64 % 1022,9 hPa 0,0 mm 0,0 km/h (0 Bft) S-SO 157 0 min 0 UV-I 0 W/m 4,8 km/h (1 Bft)
27.10.2010 06:20 7,5 C 65 % 1022,8 hPa 0,0 mm 1,6 km/h (1 Bft) S-SO 157 0 min 0 UV-I 0 W/m 8,0 km/h (2 Bft)
27.10.2010 06:30 7,4 C 66 % 1022,8 hPa 0,0 mm 0,0 km/h (0 Bft) S-SO 157 0 min 0 UV-I 0 W/m 4,8 km/h (1 Bft)
27.10.2010 06:40 7,3 C 66 % 1022,7 hPa 0,0 mm 0,0 km/h (0 Bft) S-SO 157 0 min 0 UV-I 0 W/m 4,8 km/h (1 Bft)
27.10.2010 06:50 7,3 C 67 % 1022,5 hPa 0,0 mm 0,0 km/h (0 Bft) S-SO 157 0 min 0 UV-I 0 W/m 3,2 km/h (1 Bft)
27.10.2010 07:00 7,3 C 68 % 1022,5 hPa 0,0 mm 0,0 km/h (0 Bft) S-SO 157 0 min 0 UV-I 0 W/m 4,8 km/h (1 Bft)
27.10.2010 07:10 7,3 C 70 % 1022,5 hPa 0,0 mm 0,0 km/h (0 Bft) S-SO 157 0 min 0 UV-I 0 W/m 1,6 km/h (1 Bft)
27.10.2010 07:20 7,3 C 72 % 1022,4 hPa 0,0 mm 0,0 km/h (0 Bft) S-SO 157 0 min 0 UV-I 0 W/m 1,6 km/h (1 Bft)
27.10.2010 07:30 7,2 C 73 % 1022,3 hPa 0,0 mm 0,0 km/h (0 Bft) N 0 0 min 0 UV-I 0 W/m 0,0 km/h (0 Bft)
27.10.2010 07:40 7,1 C 74 % 1022,3 hPa 0,0 mm 0,0 km/h (0 Bft) S-SO 157 0 min 0 UV-I 0 W/m 1,6 km/h (1 Bft)
27.10.2010 07:50 6,9 C 75 % 1022,3 hPa 0,0 mm 0,0 km/h (0 Bft) S-SO 157 0 min 0 UV-I 0 W/m 1,6 km/h (1 Bft)
27.10.2010 08:00 6,8 C 76 % 1022,4 hPa 0,0 mm 0,0 km/h (0 Bft) S-SO 151 0 min 0 UV-I 0 W/m 1,6 km/h (1 Bft)
27.10.2010 08:10 6,8 C 76 % 1022,4 hPa 0,0 mm 1,6 km/h (1 Bft) S-SO 157 0 min 0 UV-I 0 W/m 9,7 km/h (2 Bft)
27.10.2010 08:20 6,7 C 76 % 1022,3 hPa 0,0 mm 1,6 km/h (1 Bft) S 180 0 min 0 UV-I 0 W/m 6,4 km/h (2 Bft)
27.10.2010 08:30 6,7 C 75 % 1022,3 hPa 0,0 mm 3,2 km/h (1 Bft) W 270 0 min 0 UV-I 7 W/m 24,1 km/h (4 Bft)
27.10.2010 08:40 6,9 C 74 % 1022,3 hPa 0,0 mm 3,2 km/h (1 Bft) S-SW 202 0 min 0 UV-I 11 W/m 11,3 km/h (2 Bft)
27.10.2010 08:50 7,2 C 73 % 1022,3 hPa 0,0 mm 0,0 km/h (0 Bft) S-SW 202 0 min 0 UV-I 12 W/m 8,0 km/h (2 Bft)
27.10.2010 09:00 7,3 C 74 % 1022,4 hPa 0,0 mm 0,0 km/h (0 Bft) S-SW 202 0 min 0 UV-I 16 W/m 1,6 km/h (1 Bft)
27.10.2010 09:10 7,4 C 74 % 1022,4 hPa 0,0 mm 0,0 km/h (0 Bft) S-SW 202 0 min 0 UV-I 25 W/m 1,6 km/h (1 Bft)
27.10.2010 09:20 7,6 C 73 % 1022,4 hPa 0,0 mm 0,0 km/h (0 Bft) S-SW 202 0 min 0 UV-I 25 W/m 3,2 km/h (1 Bft)
27.10.2010 09:30 7,6 C 73 % 1022,4 hPa 0,0 mm 0,0 km/h (0 Bft) S-SW 202 0 min 0 UV-I 19 W/m 3,2 km/h (1 Bft)
27.10.2010 09:40 7,6 C 72 % 1022,5 hPa 0,0 mm 1,6 km/h (1 Bft) SW 225 0 min 0 UV-I 21 W/m 6,4 km/h (2 Bft)
27.10.2010 09:50 7,7 C 71 % 1022,5 hPa 0,0 mm 1,6 km/h (1 Bft) SW 225 0 min 0 UV-I 26 W/m 6,4 km/h (2 Bft)
27.10.2010 10:00 7,8 C 69 % 1022,5 hPa 0,0 mm 1,6 km/h (1 Bft) W-SW 247 0 min 0 UV-I 44 W/m 24,1 km/h (4 Bft)
27.10.2010 10:10 8,1 C 71 % 1022,6 hPa 0,0 mm 6,4 km/h (2 Bft) S-SW 202 0 min 0 UV-I 47 W/m 17,7 km/h (3 Bft)
27.10.2010 10:20 8,3 C 72 % 1022,6 hPa 0,0 mm 3,2 km/h (1 Bft) SW 225 0 min 0 UV-I 40 W/m 16,1 km/h (3 Bft)
27.10.2010 10:30 8,3 C 72 % 1022,6 hPa 0,0 mm 1,6 km/h (1 Bft) SW 225 0 min 0 UV-I 46 W/m 8,0 km/h (2 Bft)
27.10.2010 10:40 8,3 C 73 % 1022,6 hPa 0,0 mm 3,2 km/h (1 Bft) W-SW 247 0 min 0 UV-I 47 W/m 14,5 km/h (3 Bft)
27.10.2010 10:50 8,2 C 74 % 1022,7 hPa 0,0 mm 3,2 km/h (1 Bft) S-SW 202 0 min 0 UV-I 44 W/m 11,3 km/h (2 Bft)
27.10.2010 11:00 8,1 C 75 % 1022,6 hPa 0,0 mm 1,6 km/h (1 Bft) S-SW 202 0 min 0 UV-I 53 W/m 8,0 km/h (2 Bft)
27.10.2010 11:10 8,1 C 77 % 1022,6 hPa 0,0 mm 1,6 km/h (1 Bft) S-SW 202 0 min 1 UV-I 76 W/m 6,4 km/h (2 Bft)
27.10.2010 11:20 8,0 C 78 % 1022,5 hPa 0,0 mm 0,0 km/h (0 Bft) S 180 0 min 1 UV-I 77 W/m 6,4 km/h (2 Bft)
27.10.2010 11:30 8,0 C 79 % 1022,6 hPa 0,0 mm 1,6 km/h (1 Bft) S-SW 202 0 min 1 UV-I 77 W/m 9,7 km/h (2 Bft)
27.10.2010 11:40 7,9 C 80 % 1022,4 hPa 0,0 mm 1,6 km/h (1 Bft) SW 225 0 min 1 UV-I 65 W/m 9,7 km/h (2 Bft)
27.10.2010 11:50 7,9 C 81 % 1022,3 hPa 0,0 mm 1,6 km/h (1 Bft) S-SW 202 0 min 1 UV-I 65 W/m 9,7 km/h (2 Bft)
27.10.2010 12:00 7,9 C 82 % 1022,3 hPa 0,0 mm 1,6 km/h (1 Bft) S-SW 202 0 min 1 UV-I 70 W/m 11,3 km/h (2 Bft)
27.10.2010 12:10 7,8 C 82 % 1022,3 hPa 0,0 mm 0,0 km/h (0 Bft) S-SW 202 0 min 1 UV-I 60 W/m 4,8 km/h (1 Bft)
27.10.2010 12:20 7,8 C 83 % 1022,2 hPa 0,3 mm 0,0 km/h (0 Bft) SW 225 0 min 1 UV-I 79 W/m 6,4 km/h (2 Bft)
27.10.2010 12:30 7,8 C 84 % 1022,1 hPa 0,0 mm 0,0 km/h (0 Bft) S-SW 202 0 min 1 UV-I 67 W/m 3,2 km/h (1 Bft)
27.10.2010 12:40 7,8 C 85 % 1022,0 hPa 0,0 mm 0,0 km/h (0 Bft) S-SW 202 0 min 1 UV-I 77 W/m 3,2 km/h (1 Bft)
27.10.2010 12:50 7,8 C 86 % 1021,8 hPa 0,0 mm 0,0 km/h (0 Bft) S-SW 202 0 min 1 UV-I 113 W/m 3,2 km/h (1 Bft)
27.10.2010 13:00 7,9 C 86 % 1021,5 hPa 0,0 mm 0,0 km/h (0 Bft) S-SW 202 0 min 1 UV-I 121 W/m 4,8 km/h (1 Bft)
27.10.2010 13:10 8,1 C 87 % 1021,5 hPa 0,0 mm 0,0 km/h (0 Bft) S 180 0 min 1 UV-I 107 W/m 4,8 km/h (1 Bft)
27.10.2010 13:20 8,1 C 87 % 1021,5 hPa 0,0 mm 1,6 km/h (1 Bft) S 180 0 min 1 UV-I 93 W/m 6,4 km/h (2 Bft)
27.10.2010 13:30 8,2 C 88 % 1021,4 hPa 0,0 mm 1,6 km/h (1 Bft) SO 135 0 min 1 UV-I 102 W/m 6,4 km/h (2 Bft)
27.10.2010 13:40 8,3 C 88 % 1021,5 hPa 0,0 mm 0,0 km/h (0 Bft) SO 135 0 min 1 UV-I 100 W/m 3,2 km/h (1 Bft)
27.10.2010 13:50 8,3 C 88 % 1021,4 hPa 0,0 mm 0,0 km/h (0 Bft) SO 135 0 min 1 UV-I 91 W/m 3,2 km/h (1 Bft)
27.10.2010 14:00 8,4 C 88 % 1021,4 hPa 0,0 mm 0,0 km/h (0 Bft) SO 135 0 min 1 UV-I 109 W/m 4,8 km/h (1 Bft)
27.10.2010 14:10 8,6 C 89 % 1021,2 hPa 0,0 mm 0,0 km/h (0 Bft) SO 135 0 min 1 UV-I 144 W/m 4,8 km/h (1 Bft)
27.10.2010 14:20 8,8 C 89 % 1021,3 hPa 0,0 mm 0,0 km/h (0 Bft) SO 135 0 min 1 UV-I 111 W/m 1,6 km/h (1 Bft)
27.10.2010 14:30 8,9 C 89 % 1021,3 hPa 0,0 mm 0,0 km/h (0 Bft) SO 135 0 min 1 UV-I 109 W/m 1,6 km/h (1 Bft)
27.10.2010 14:40 9,1 C 89 % 1021,2 hPa 0,0 mm 0,0 km/h (0 Bft) SO 135 0 min 1 UV-I 120 W/m 1,6 km/h (1 Bft)
27.10.2010 14:50 9,2 C 89 % 1021,1 hPa 0,0 mm 0,0 km/h (0 Bft) SO 135 0 min 1 UV-I 109 W/m 1,6 km/h (1 Bft)
27.10.2010 15:00 9,3 C 88 % 1021,1 hPa 0,0 mm 0,0 km/h (0 Bft) SO 135 0 min 1 UV-I 79 W/m 1,6 km/h (1 Bft)
27.10.2010 15:10 9,4 C 88 % 1021,1 hPa 0,0 mm 0,0 km/h (0 Bft) SO 135 0 min 0 UV-I 60 W/m 3,2 km/h (1 Bft)
27.10.2010 15:20 9,6 C 88 % 1021,1 hPa 0,0 mm 0,0 km/h (0 Bft) SO 135 0 min 0 UV-I 58 W/m 3,2 km/h (1 Bft)
27.10.2010 15:30 9,6 C 87 % 1021,1 hPa 0,0 mm 0,0 km/h (0 Bft) SO 135 0 min 0 UV-I 46 W/m 1,6 km/h (1 Bft)
27.10.2010 15:40 9,6 C 87 % 1020,8 hPa 0,0 mm 0,0 km/h (0 Bft) SO 135 0 min 0 UV-I 67 W/m 6,4 km/h (2 Bft)
27.10.2010 15:50 9,6 C 86 % 1020,7 hPa 0,3 mm 0,0 km/h (0 Bft) SO 135 0 min 0 UV-I 46 W/m 4,8 km/h (1 Bft)
27.10.2010 16:00 9,7 C 86 % 1020,5 hPa 0,0 mm 1,6 km/h (1 Bft) SW 232 0 min 0 UV-I 50 W/m 8,0 km/h (2 Bft)
27.10.2010 16:10 9,8 C 85 % 1020,6 hPa 0,0 mm 1,6 km/h (1 Bft) SW 225 0 min 0 UV-I 40 W/m 4,8 km/h (1 Bft)
27.10.2010 16:20 9,8 C 85 % 1020,5 hPa 0,0 mm 0,0 km/h (0 Bft) SW 225 0 min 0 UV-I 98 W/m 6,4 km/h (2 Bft)
27.10.2010 16:30 9,9 C 85 % 1020,5 hPa 0,0 mm 0,0 km/h (0 Bft) SW 225 10 min 0 UV-I 142 W/m 3,2 km/h (1 Bft)
27.10.2010 16:40 10,1 C 85 % 1020,4 hPa 0,0 mm 1,6 km/h (1 Bft) SW 225 0 min 0 UV-I 105 W/m 8,0 km/h (2 Bft)
27.10.2010 16:50 10,3 C 84 % 1020,3 hPa 0,0 mm 1,6 km/h (1 Bft) S 180 0 min 0 UV-I 40 W/m 11,3 km/h (2 Bft)
27.10.2010 17:00 10,3 C 83 % 1020,3 hPa 0,0 mm 1,6 km/h (1 Bft) SW 225 0 min 0 UV-I 28 W/m 11,3 km/h (2 Bft)
27.10.2010 17:10 10,4 C 82 % 1020,3 hPa 0,0 mm 1,6 km/h (1 Bft) SW 225 0 min 0 UV-I 19 W/m 8,0 km/h (2 Bft)
27.10.2010 17:20 10,4 C 82 % 1020,2 hPa 0,0 mm 1,6 km/h (1 Bft) S-SW 202 0 min 0 UV-I 18 W/m 6,4 km/h (2 Bft)
27.10.2010 17:30 10,4 C 82 % 1020,1 hPa 0,0 mm 0,0 km/h (0 Bft) S-SW 202 0 min 0 UV-I 18 W/m 4,8 km/h (1 Bft)
27.10.2010 17:40 10,4 C 82 % 1020,1 hPa 0,0 mm 0,0 km/h (0 Bft) S-SW 202 0 min 0 UV-I 12 W/m 4,8 km/h (1 Bft)
27.10.2010 17:50 10,4 C 82 % 1020,1 hPa 0,0 mm 0,0 km/h (0 Bft) S-SW 202 0 min 0 UV-I 5 W/m 3,2 km/h (1 Bft)
27.10.2010 18:00 10,4 C 82 % 1020,1 hPa 0,0 mm 0,0 km/h (0 Bft) S-SW 202 0 min 0 UV-I 0 W/m 1,6 km/h (1 Bft)
27.10.2010 18:10 10,4 C 82 % 1020,2 hPa 0,0 mm 0,0 km/h (0 Bft) N 0 0 min 0 UV-I 0 W/m 0,0 km/h (0 Bft)
27.10.2010 18:20 10,3 C 82 % 1020,1 hPa 0,0 mm 0,0 km/h (0 Bft) S-SW 202 0 min 0 UV-I 0 W/m 1,6 km/h (1 Bft)
27.10.2010 18:30 10,3 C 83 % 1020,2 hPa 0,0 mm 0,0 km/h (0 Bft) S-SW 202 0 min 0 UV-I 0 W/m 4,8 km/h (1 Bft)
27.10.2010 18:40 10,2 C 83 % 1020,1 hPa 0,0 mm 0,0 km/h (0 Bft) S-SW 202 0 min 0 UV-I 0 W/m 1,6 km/h (1 Bft)
27.10.2010 18:50 10,2 C 83 % 1020,1 hPa 0,0 mm 0,0 km/h (0 Bft) S-SW 202 0 min 0 UV-I 0 W/m 3,2 km/h (1 Bft)
27.10.2010 19:00 10,1 C 83 % 1020,2 hPa 0,0 mm 0,5 km/h (0 Bft) S-SW 201 0 min 0 UV-I 0 W/m 4,8 km/h (1 Bft)
27.10.2010 19:10 10,1 C 83 % 1020,0 hPa 0,0 mm 0,3 km/h (0 Bft) S-SW 200 0 min 0 UV-I 0 W/m 4,8 km/h (1 Bft)
27.10.2010 19:20 10,0 C 83 % 1020,0 hPa 0,0 mm 0,2 km/h (0 Bft) S-SW 200 0 min 0 UV-I 0 W/m 3,2 km/h (1 Bft)
27.10.2010 19:30 10,0 C 83 % 1019,9 hPa 0,0 mm 0,1 km/h (0 Bft) S-SW 199 0 min 0 UV-I 0 W/m 1,6 km/h (1 Bft)
27.10.2010 19:40 10,0 C 83 % 1019,9 hPa 0,0 mm 0,4 km/h (0 Bft) S-SW 198 0 min 0 UV-I 0 W/m 6,4 km/h (2 Bft)
27.10.2010 19:50 9,9 C 82 % 1019,9 hPa 0,0 mm 0,3 km/h (0 Bft) S-SW 196 0 min 0 UV-I 0 W/m 4,8 km/h (1 Bft)
27.10.2010 20:00 9,9 C 82 % 1019,9 hPa 0,0 mm 0,3 km/h (0 Bft) S-SW 196 0 min 0 UV-I 0 W/m 4,8 km/h (1 Bft)
27.10.2010 20:10 9,9 C 82 % 1019,9 hPa 0,0 mm 0,5 km/h (0 Bft) S 188 0 min 0 UV-I 0 W/m 4,8 km/h (1 Bft)
27.10.2010 20:20 9,9 C 81 % 1019,9 hPa 0,0 mm 0,2 km/h (0 Bft) S 188 0 min 0 UV-I 0 W/m 3,2 km/h (1 Bft)
27.10.2010 20:30 9,9 C 81 % 1019,8 hPa 0,0 mm 0,2 km/h (0 Bft) S 188 0 min 0 UV-I 0 W/m 4,8 km/h (1 Bft)
27.10.2010 20:40 9,9 C 81 % 1019,8 hPa 0,0 mm 0,1 km/h (0 Bft) S 188 0 min 0 UV-I 0 W/m 1,6 km/h (1 Bft)
27.10.2010 20:50 9,9 C 81 % 1019,8 hPa 0,0 mm 0,2 km/h (0 Bft) S 188 0 min 0 UV-I 0 W/m 3,2 km/h (1 Bft)
27.10.2010 21:00 9,9 C 80 % 1019,7 hPa 0,0 mm 0,0 km/h (0 Bft) S 188 0 min 0 UV-I 0 W/m 1,6 km/h (1 Bft)
27.10.2010 21:10 9,9 C 80 % 1019,6 hPa 0,0 mm 0,3 km/h (0 Bft) S 190 0 min 0 UV-I 0 W/m 4,8 km/h (1 Bft)
27.10.2010 21:20 9,9 C 79 % 1019,6 hPa 0,0 mm 0,2 km/h (0 Bft) S 190 0 min 0 UV-I 0 W/m 4,8 km/h (1 Bft)
27.10.2010 21:30 9,8 C 78 % 1019,6 hPa 0,0 mm 0,2 km/h (0 Bft) S 190 0 min 0 UV-I 0 W/m 3,2 km/h (1 Bft)
27.10.2010 21:40 9,8 C 78 % 1019,6 hPa 0,0 mm 0,1 km/h (0 Bft) S 190 0 min 0 UV-I 0 W/m 3,2 km/h (1 Bft)
27.10.2010 21:50 9,8 C 77 % 1019,5 hPa 0,0 mm 0,1 km/h (0 Bft) S 190 0 min 0 UV-I 0 W/m 3,2 km/h (1 Bft)
27.10.2010 22:00 9,8 C 77 % 1019,5 hPa 0,0 mm 0,0 km/h (0 Bft) S 190 0 min 0 UV-I 0 W/m 0,0 km/h (0 Bft)
27.10.2010 22:10 9,8 C 76 % 1019,5 hPa 0,0 mm 0,1 km/h (0 Bft) S 190 0 min 0 UV-I 0 W/m 3,2 km/h (1 Bft)
27.10.2010 22:20 9,7 C 76 % 1019,5 hPa 0,0 mm 0,2 km/h (0 Bft) S 190 0 min 0 UV-I 0 W/m 4,8 km/h (1 Bft)
27.10.2010 22:30 9,7 C 75 % 1019,5 hPa 0,0 mm 0,6 km/h (0 Bft) S 190 0 min 0 UV-I 0 W/m 4,8 km/h (1 Bft)
27.10.2010 22:40 9,7 C 74 % 1019,4 hPa 0,0 mm 0,9 km/h (0 Bft) S-SW 195 0 min 0 UV-I 0 W/m 6,4 km/h (2 Bft)
27.10.2010 22:50 9,7 C 73 % 1019,4 hPa 0,0 mm 0,5 km/h (0 Bft) S-SW 194 0 min 0 UV-I 0 W/m 6,4 km/h (2 Bft)
27.10.2010 23:00 9,7 C 72 % 1019,4 hPa 0,0 mm 0,5 km/h (0 Bft) S-SW 196 0 min 0 UV-I 0 W/m 4,8 km/h (1 Bft)
27.10.2010 23:10 9,7 C 72 % 1019,3 hPa 0,0 mm 0,0 km/h (0 Bft) S-SW 202 0 min 0 UV-I 0 W/m 3,2 km/h (1 Bft)
27.10.2010 23:20 9,8 C 71 % 1019,4 hPa 0,0 mm 0,0 km/h (0 Bft) S-SW 202 0 min 0 UV-I 0 W/m 4,8 km/h (1 Bft)
27.10.2010 23:30 9,8 C 71 % 1019,4 hPa 0,0 mm 0,0 km/h (0 Bft) S-SW 202 0 min 0 UV-I 0 W/m 1,6 km/h (1 Bft)
27.10.2010 23:40 9,8 C 72 % 1019,4 hPa 0,0 mm 0,0 km/h (0 Bft) N 0 0 min 0 UV-I 0 W/m 0,0 km/h (0 Bft)
27.10.2010 23:50 9,8 C 72 % 1019,4 hPa 0,0 mm 0,0 km/h (0 Bft) S-SW 202 0 min 0 UV-I 0 W/m 1,6 km/h (1 Bft)
_ Min-Zeit 00:00 04:40 23:10 - 00:00 - - - - - 00:00
Minimum _ 4,8 C 59 % 1019,3 hPa - 0,0 km/h (0 Bft) - - - - - 0,0 km/h (0 Bft)
_ Max-Zeit 17:50 14:10 00:00 12:20 10:10 - - 16:30 14:10 14:10 08:30
Maximum _ 10,5 C 89 % 1025,8 hPa 0,3 mm 6,4 km/h
S-SW (2 Bft)
- - 10 min 1 UV-I 144 W/m 24,1 km/h
W (4 Bft)
Durchschnitt _ 8,1 C 78 % 1021,9 hPa #0,5 mm 0,6 km/h (0 Bft) S-SW - #10 min. 1 UV-I 62 W/m 4,8 km/h (1 Bft)